This demonstration page uses our WeatherBlox Daily Observations layout. Learn more.

Left ArrowRight Arrow

39.12711, -84.51439

Hourly Observations for October 21, 2021

Temp ( °F °C ) Dew Point ( °F °C ) Humidity (%) Winds ( mph kmh ) Pressure ( in mb ) Visibility ( mi km ) Precip ( " mm )
12:53 am 00:53 Clear 55 12.8 54 12.2 96 96 N N/A 30.07 1018 10 16 N/A
1:53 am 01:53 Clear 54 12.2 54 12.2 100 100 N N/A 30.06 1018 10 16 N/A
2:05 am 02:05 Clear with Mist and Fog 52 11.1 52 11.1 100 100 N N/A 30.07 1018 1 1 N/A
2:43 am 02:43 Clear with Mist and Fog 52 11.1 52 11.1 100 100 N N/A 30.06 1018 2 3 N/A
2:51 am 02:51 Clear 52 11 52 11 100 100 N N/A 30.06 1018 8 13 N/A
2:53 am 02:53 Clear 51 10.6 51 10.6 100 100 N N/A 30.04 1017 9 14 N/A
3:53 am 03:53 Clear 52 11.1 52 11.1 100 100 WSW 3 6 30.02 1017 10 16 N/A
4:53 am 04:53 Mostly Clear 51 10.6 51 10.6 100 100 N N/A 30.01 1016 10 16 N/A
5:53 am 05:53 Clear 54 12.2 53 11.7 97 97 SW 6 9 29.99 1016 10 16 N/A
6:53 am 06:53 Clear 54 12.2 53 11.7 97 97 N N/A 29.98 1015 10 16 N/A
7:53 am 07:53 Mostly Cloudy 56 13.3 55 12.8 97 97 WSW 3 6 29.96 1015 10 16 N/A
8:49 am 08:49 Cloudy 61 16 57 14 88 88 WSW 5 7 29.97 1015 10 16 N/A
8:53 am 08:53 Cloudy 59 15 58 14.4 96 96 SW 5 7 29.96 1015 10 16 N/A
9:53 am 09:53 Cloudy 62 16.7 60 15.6 93 93 SSW 8 13 29.96 1015 10 16 N/A
10:00 am 10:00 Cloudy 62 16.7 61 16.1 96 96 SSW 10 17 29.95 1014 10 16 N/A
10:53 am 10:53 Cloudy with Light Rain 65 18.3 62 16.7 90 90 SSW 12 19 29.94 1014 8 13 0.00 0.00
11:53 am 11:53 Cloudy 66 18.9 63 17.2 90 90 SSW 12 19 29.93 1014 10 16 0.00 0.00
12:53 pm 12:53 Mostly Cloudy 69 20.6 64 17.8 84 84 SW 12 19 29.91 1013 10 16 N/A
1:53 pm 13:53 Mostly Cloudy 72 22.2 63 17.2 73 73 SSW 14 22 29.87 1011 10 16 N/A
2:00 pm 14:00 Partly Cloudy 73 22.8 62 16.7 69 69 SSW 14 22 29.84 1011 10 16 N/A
2:53 pm 14:53 Mostly Sunny 74 23.3 55 12.8 52 52 WSW 22 35 29.84 1011 10 16 N/A
3:53 pm 15:53 Mostly Cloudy 70 21.1 52 11.1 53 53 W 16 26 29.87 1012 10 16 N/A
4:53 pm 16:53 Partly Cloudy 68 20 46 7.8 45 45 WNW 22 35 29.90 1013 10 16 N/A
5:53 pm 17:53 Mostly Sunny 65 18.3 45 7.2 49 49 W 20 31 29.93 1013 10 16 N/A
6:53 pm 18:53 Clear 62 16.7 45 7.2 54 54 NW 12 19 29.95 1014 10 16 N/A
7:53 pm 19:53 Clear 58 14.4 46 7.8 65 65 W 13 20 29.99 1016 10 16 N/A
8:53 pm 20:53 Clear 56 13.3 45 7.2 67 67 W 14 22 30.02 1017 10 16 N/A
9:53 pm 21:53 Clear 54 12.2 45 7.2 72 72 W 10 17 30.03 1017 10 16 N/A
10:53 pm 22:53 Clear 53 11.7 45 7.2 74 74 WNW 6 9 30.04 1017 10 16 N/A
11:53 pm 23:53 Clear 51 10.6 45 7.2 80 80 N N/A 30.04 1017 10 16 N/A

Powered by AerisWeather